Location: Unspecified
(39.4830°S, 0.0000°E)
Time: 15:04:36
(UTC+00:00)

Envisat - Visible Passes

Search period start: 20 May 2019 00:00
Search period end: 30 May 2019 00:00
Orbit: 764 x 766 km, 98.2° (Epoch: 19 May)

Date Brightness Start Highest point End Pass type
(mag) Time Alt. Az. Time Alt. Az. Time Alt. Az.
20 May 3.4 06:17:12 10° NNE 06:22:16 71° ESE 06:27:25 10° S visible
20 May 4.7 18:34:37 18° NE 18:34:37 18° NE 18:36:15 10° NNE visible
20 May 5.6 20:14:49 14° NW 20:14:49 14° NW 20:15:38 10° NW visible
21 May 4.8 05:41:13 10° NE 05:45:43 32° ESE 05:50:15 10° S visible
21 May 4.8 19:37:40 23° NNW 19:37:40 23° NNW 19:39:33 10° NNW visible
22 May 5.7 05:06:28 10° E 05:09:21 15° ESE 05:12:15 10° SSE visible
22 May 4.5 19:00:30 23° NNE 19:00:30 23° NNE 19:02:34 10° N visible
23 May 3.8 06:06:06 10° NNE 06:11:05 56° ESE 06:16:07 10° S visible
23 May 4.8 18:23:20 14° NE 18:23:20 14° NE 18:24:29 10° NE visible
23 May 5.3 20:03:32 17° NW 20:03:32 17° NW 20:04:42 10° NW visible
24 May 5.1 05:30:25 10° ENE 05:34:35 26° ESE 05:38:46 10° SSE visible
24 May 4.6 19:26:22 24° N 19:26:22 24° N 19:28:21 10° NNW visible
25 May 5.8 04:56:19 10° E 04:58:17 12° ESE 05:00:15 10° SE visible
25 May 3.1 06:31:26 10° NNE 06:36:32 84° WNW 06:41:44 10° SSW visible
25 May 4.5 18:49:11 21° NNE 18:49:11 21° NNE 18:51:04 10° NNE visible
26 May 4.2 05:55:05 10° NE 05:59:54 44° ESE 06:04:47 10° S visible
26 May 5.0 18:12:01 12° NE 18:12:01 12° NE 18:12:31 10° NE visible
26 May 5.1 19:52:12 19° NW 19:52:12 19° NW 19:53:40 10° NNW visible
27 May 5.4 05:19:43 10° ENE 05:23:27 21° ESE 05:27:13 10° SSE visible
27 May 4.5 19:15:02 24° N 19:15:02 24° N 19:17:03 10° N visible
28 May 3.2 06:20:13 10° NNE 06:25:20 78° ESE 06:30:30 10° S visible
28 May 4.7 18:37:50 18° NE 18:37:50 18° NE 18:39:29 10° NNE visible
28 May 5.7 20:18:02 13° NW 20:18:02 13° NW 20:18:33 10° NW visible
29 May 4.6 05:44:09 10° NE 05:48:44 35° ESE 05:53:23 10° S visible
29 May 4.9 19:40:51 22° NNW 19:40:51 22° NNW 19:42:34 10° NNW visible
